TimeEST,TemperatureF,Dew PointF,Humidity,Sea Level PressureIn,VisibilityMPH,Wind Direction,Wind SpeedMPH,Gust SpeedMPH,PrecipitationIn,Events,Conditions,WindDirDegrees,DateUTC
12:53 AM,32.0,32.0,100,30.18,10.0,Calm,Calm,-,N/A,,Clear,0,2014-01-13 05:53:00
1:53 AM,32.0,30.9,96,30.18,10.0,Calm,Calm,-,N/A,,Clear,0,2014-01-13 06:53:00
2:53 AM,32.0,30.9,96,30.19,10.0,Calm,Calm,-,N/A,,Clear,0,2014-01-13 07:53:00
3:53 AM,30.9,30.0,96,30.18,10.0,Calm,Calm,-,N/A,,Clear,0,2014-01-13 08:53:00
4:53 AM,30.9,30.9,100,30.18,10.0,Calm,Calm,-,N/A,,Clear,0,2014-01-13 09:53:00
5:53 AM,32.0,30.9,96,30.14,10.0,SE,3.5,-,N/A,,Clear,130,2014-01-13 10:53:00
6:53 AM,32.0,32.0,100,30.13,10.0,Calm,Calm,-,N/A,,Clear,0,2014-01-13 11:53:00
7:53 AM,34.0,34.0,100,30.16,10.0,Calm,Calm,-,N/A,,Clear,0,2014-01-13 12:53:00
8:53 AM,37.9,37.0,97,30.18,10.0,Calm,Calm,-,N/A,,Clear,0,2014-01-13 13:53:00
9:53 AM,45.0,39.0,80,30.17,10.0,Calm,Calm,-,N/A,,Clear,0,2014-01-13 14:53:00
10:53 AM,53.1,39.0,59,30.14,10.0,Variable,4.6,-,N/A,,Clear,0,2014-01-13 15:53:00
11:53 AM,57.0,36.0,45,30.11,10.0,South,8.1,17.3,N/A,,Clear,180,2014-01-13 16:53:00
12:53 PM,57.0,37.9,49,30.06,10.0,South,8.1,-,N/A,,Clear,190,2014-01-13 17:53:00
1:53 PM,59.0,36.0,42,30.03,10.0,South,8.1,-,N/A,,Clear,170,2014-01-13 18:53:00
2:53 PM,59.0,35.1,41,30.00,10.0,South,6.9,-,N/A,,Partly Cloudy,180,2014-01-13 19:53:00
3:53 PM,55.9,39.0,53,29.97,10.0,South,3.5,-,0.00,Rain,Light Rain,170,2014-01-13 20:53:00
4:53 PM,52.0,45.0,77,29.97,6.0,SE,5.8,-,0.01,Rain,Light Rain,140,2014-01-13 21:53:00
5:53 PM,50.0,46.0,86,29.99,8.0,SSE,3.5,-,0.04,Rain,Light Rain,160,2014-01-13 22:53:00
6:53 PM,48.9,46.0,90,29.96,8.0,SSE,8.1,18.4,0.03,Rain,Light Rain,150,2014-01-13 23:53:00
7:27 PM,48.9,46.9,93,29.95,10.0,Variable,6.9,-,0.00,Rain,Light Rain,0,2014-01-14 00:27:00
7:53 PM,48.9,46.9,93,29.97,10.0,SSE,5.8,-,0.00,,Overcast,150,2014-01-14 00:53:00
8:20 PM,48.9,46.9,93,29.96,10.0,SSE,9.2,-,N/A,,Overcast,150,2014-01-14 01:20:00
8:50 PM,48.2,46.4,93,29.94,10.0,SSE,10.4,-,N/A,,Overcast,150,2014-01-14 01:50:00
8:53 PM,48.9,46.9,93,29.96,10.0,SSE,8.1,-,N/A,,Overcast,150,2014-01-14 01:53:00
9:10 PM,48.9,46.9,93,29.94,10.0,SSE,5.8,-,N/A,,Overcast,160,2014-01-14 02:10:00
9:22 PM,48.9,46.9,93,29.94,10.0,South,4.6,-,N/A,,Overcast,170,2014-01-14 02:22:00
9:53 PM,48.9,46.9,93,29.94,10.0,SSE,6.9,-,N/A,,Overcast,150,2014-01-14 02:53:00
10:31 PM,48.9,46.9,93,29.91,10.0,SSE,3.5,-,N/A,,Mostly Cloudy,150,2014-01-14 03:31:00
10:39 PM,48.9,46.9,93,29.92,10.0,Variable,4.6,-,N/A,,Mostly Cloudy,0,2014-01-14 03:39:00
10:53 PM,48.9,46.9,93,29.92,10.0,SSE,3.5,-,N/A,,Overcast,160,2014-01-14 03:53:00
11:53 PM,50.0,46.9,89,29.89,10.0,Calm,Calm,-,N/A,,Overcast,0,2014-01-14 04:53:00